GW3247 Weather Reports


time (UTC)temp
C
wind
direction
speed
KPH
gust
KPH
rain 1hr
cm
rain 24hr
cm
rain mn
cm
humidity
%
barometer
mb
20260504081508 10 327 22.5 30.6 0.00 0.84 0.43 91 1009.1
20260504050125 10 11 8.0 12.9 0.00 0.84 0.43 93 1006.4
20260504044558 10 49 11.3 17.7 0.00 0.84 0.43 93 1006.4
20260504043059 10 24 14.5 19.3 0.00 0.84 0.43 93 1006.2
20260504041550 10 26 14.5 19.3 0.00 0.84 0.43 92 1006.1
20260504040046 11 352 16.1 20.9 0.00 0.84 0.43 91 1006.0
20260504034550 11 250 6.4 16.1 0.00 0.84 0.43 93 1005.8
20260504033045 11 294 1.6 9.7 0.00 0.84 0.43 93 1005.8
20260504031558 11 271 1.6 8.0 0.03 0.84 0.43 94 1005.9
20260504030042 11 228 0.0 4.8 0.03 0.84 0.43 93 1006.0
20260504024542 11 213 1.6 4.8 0.03 0.84 0.43 93 1006.1
20260504023038 11 152 0.0 0.0 0.05 0.84 0.43 93 1006.1
20260504021536 11 152 0.0 0.0 0.05 0.81 0.41 93 1006.2
20260504020040 11 153 0.0 0.0 0.05 0.81 0.41 93 1006.2
20260504014536 11 143 0.0 0.0 0.05 0.81 0.41 93 1006.2
20260504013036 11 86 0.0 3.2 0.05 0.79 0.38 93 1006.3
20260504011533 11 65 3.2 6.4 0.05 0.79 0.36 93 1006.4
20260504010031 11 63 4.8 8.0 0.03 0.76 0.33 93 1006.3
20260504004530 11 66 6.4 8.0 0.03 0.76 0.33 93 1006.4
20260504003027 11 49 4.8 9.7 0.03 0.76 0.33 92 1006.4
20260504001525 11 49 3.2 11.3 0.05 0.71 0.33 92 1006.5
20260504000024 11 53 4.8 11.3 0.10 0.71 0.33 92 1006.6
20260503234526 11 27 8.0 9.7 0.15 0.71 0.33 92 1006.9
20260503233019 11 336 1.6 4.8 0.15 0.71 0.30 92 1007.1
20260503231519 11 221 0.0 3.2 0.20 0.71 0.28 92 1007.1
20260503230016 11 207 0.0 8.0 0.23 0.64 0.23 92 1007.2
20260503224514 11 198 3.2 8.0 0.28 0.61 0.18 91 1007.5
20260503223021 11 163 3.2 6.4 0.33 0.56 0.15 91 1007.7
20260503221510 11 305 1.6 4.8 0.28 0.51 0.08 91 1007.8
20260503220011 11 297 0.0 3.2 0.20 0.43 0.43 91 1008.1
20260503214506 11 179 1.6 8.0 0.13 0.33 0.33 91 1008.0
20260503213006 11 234 1.6 4.8 0.15 0.23 0.23 91 1008.1
20260503211504 11 130 4.8 6.4 0.23 0.23 0.23 90 1007.6
20260503210002 11 92 1.6 4.8 0.23 0.23 0.23 90 1007.8
20260503204621 11 116 3.2 6.4 0.20 0.20 0.20 90 1007.9
20260503203114 11 259 0.0 3.2 0.10 0.10 0.10 90 1009.0
20260503201556 11 216 3.2 4.8 0.00 0.00 0.00 90 1009.0
20260503200055 11 153 0.0 3.2 0.00 0.00 0.00 90 1008.6
20260503194554 11 156 0.0 1.6 0.00 0.00 0.00 90 1008.6
20260503193053 11 91 0.0 1.6 0.00 0.00 0.00 90 1008.8
20260503191602 11 91 0.0 4.8 0.00 0.00 0.00 90 1008.7
20260503190050 11 105 1.6 4.8 0.00 0.00 0.00 90 1008.7
20260503184605 11 127 3.2 4.8 0.00 0.00 0.00 90 1008.8
20260503183048 11 130 3.2 4.8 0.00 0.00 0.00 90 1009.0
20260503181547 11 102 1.6 4.8 0.00 0.00 0.00 90 1009.1
20260503180047 11 110 0.0 6.4 0.00 0.00 0.00 90 1009.2
20260503174601 11 113 3.2 6.4 0.00 0.00 0.00 90 1008.9
20260503173043 11 133 1.6 3.2 0.00 0.00 0.00 90 1009.4
20260503171541 11 91 3.2 6.4 0.00 0.00 0.00 90 1009.4